Staples, MN

1:49 AM CDT on March 23, 2017 (GMT -0500)
Staples Municipal

Weather History for KSAZ - October, 2012

Change the Weather History Date:

Thursday, October 18, 2012

  Actual Average Record
Temperature  
Mean Temperature 44 °F -  
Max Temperature 46 °F 51 °F 75 °F (2005)
Min Temperature 41 °F 34 °F 26 °F (2011)
Degree Days  
Heating Degree Days 22    
Moisture  
Dew Point 42 °F    
Average Humidity 93    
Maximum Humidity 100    
Minimum Humidity 87    
Precipitation  
Precipitation 0.27 in - - ()
Sea Level Pressure  
Sea Level Pressure 29.24 in    
Wind  
Wind Speed 4 mph (West)    
Max Wind Speed 9 mph    
Max Gust Speed -    
Visibility 6 miles    
Events Rain    
Averages and records for this station are not official NWS values.
T = Trace of Precipitation, MM = Missing Value Source: NWS Daily Summary

Daily Weather History Graph

Daily Weather History Graph

Search for Another Location

Airport or City:

Trip Planner

Search our weather history database for the weather conditions in past years. The results will help you decide how hot, cold, wet, or windy it might be!

Date:

Astronomy

Oct. 18, 2012 Rise Set
Actual Time 7:41 AM CDT 6:26 PM CDT
Civil Twilight 7:10 AM CDT 6:56 PM CDT
Nautical Twilight 6:35 AM CDT 7:31 PM CDT
Astronomical Twilight 6:01 AM CDT 8:06 PM CDT
Moon 11:36 AM CDT (10/18) 8:49 PM CDT (10/18)
Length of Visible Light 11h 45m
Length of Day
10h 44m
Waxing Crescent, 14% of the Moon is Illuminated
Oct 18
Waxing Crescent
Oct 21
First Quarter
Oct 29
Full
Nov 6
Last Quarter
Nov 13
New

Hourly Weather History & Observations

Time (CDT) Temp. Windchill Dew Point Humidity Pressure Visibility Wind Dir Wind Speed Gust Speed Precip Events Conditions
12:14 AM 42.8 °F 38.0 °F 39.2 °F 87% 29.19 in 10.0 mi West 8.1 mph - N/A   Overcast
12:33 AM 42.8 °F 38.6 °F 39.2 °F 87% 29.20 in 10.0 mi WSW 6.9 mph - N/A   Overcast
12:53 AM 42.8 °F 38.6 °F 39.2 °F 87% 29.19 in 10.0 mi WSW 6.9 mph - N/A   Overcast
1:14 AM 42.8 °F 38.6 °F 39.2 °F 87% 29.19 in 10.0 mi WSW 6.9 mph - N/A   Overcast
1:33 AM 42.8 °F 38.6 °F 39.2 °F 87% 29.19 in 10.0 mi WSW 6.9 mph - N/A   Overcast
1:53 AM 42.8 °F 39.3 °F 39.2 °F 87% 29.18 in 10.0 mi WSW 5.8 mph - N/A   Overcast
2:14 AM 42.8 °F 38.6 °F 39.2 °F 87% 29.18 in 10.0 mi WSW 6.9 mph - N/A   Overcast
2:33 AM 42.8 °F 40.1 °F 39.2 °F 87% 29.18 in 10.0 mi WSW 4.6 mph - N/A   Overcast
2:53 AM 42.8 °F 39.3 °F 39.2 °F 87% 29.17 in 10.0 mi WSW 5.8 mph - N/A   Overcast
3:14 AM 42.8 °F 40.1 °F 39.2 °F 87% 29.17 in 10.0 mi WSW 4.6 mph - N/A   Overcast
3:33 AM 42.8 °F 41.1 °F 39.2 °F 87% 29.16 in 10.0 mi WSW 3.5 mph - N/A   Overcast
3:53 AM 42.8 °F - 39.2 °F 87% 29.16 in 10.0 mi Calm Calm - N/A   Overcast
4:14 AM 42.8 °F - 39.2 °F 87% 29.16 in 10.0 mi Calm Calm - N/A   Overcast
4:33 AM 42.8 °F - 39.2 °F 87% 29.16 in 10.0 mi Calm Calm - N/A   Overcast
4:53 AM 42.8 °F - 39.2 °F 87% 29.16 in 10.0 mi Calm Calm - N/A   Overcast
5:14 AM 42.8 °F - 39.2 °F 87% 29.16 in 10.0 mi Calm Calm - N/A   Overcast
5:33 AM 41.0 °F - 39.2 °F 93% 29.15 in 10.0 mi Calm Calm - N/A   Overcast
5:53 AM 41.0 °F - 39.2 °F 93% 29.15 in 10.0 mi Calm Calm - N/A   Overcast
6:33 AM 41.0 °F - 39.2 °F 93% 29.15 in 10.0 mi Calm Calm - N/A   Overcast
6:53 AM 41.0 °F - 39.2 °F 93% 29.15 in 10.0 mi Calm Calm - N/A   Overcast
7:13 AM 41.0 °F - 39.2 °F 93% 29.15 in 10.0 mi Calm Calm - N/A   Overcast
7:34 AM 41.0 °F - 39.2 °F 93% 29.14 in 10.0 mi Calm Calm - N/A   Overcast
7:53 AM 41.0 °F - 39.2 °F 93% 29.16 in 10.0 mi Calm Calm - N/A   Overcast
8:13 AM 41.0 °F - 39.2 °F 93% 29.16 in 10.0 mi Calm Calm - N/A   Overcast
8:34 AM 41.0 °F - 39.2 °F 93% 29.17 in 10.0 mi Calm Calm - N/A   Overcast
8:53 AM 42.8 °F 41.1 °F 39.2 °F 87% 29.18 in 10.0 mi NNE 3.5 mph - N/A   Overcast
9:14 AM 42.8 °F 41.1 °F 39.2 °F 87% 29.18 in 10.0 mi NE 3.5 mph - N/A   Overcast
9:34 AM 42.8 °F 41.1 °F 41.0 °F 93% 29.19 in 10.0 mi NNE 3.5 mph - N/A   Overcast
9:53 AM 42.8 °F 40.1 °F 41.0 °F 93% 29.19 in 10.0 mi NNE 4.6 mph - N/A   Overcast
10:14 AM 42.8 °F 39.3 °F 41.0 °F 93% 29.20 in 10.0 mi North 5.8 mph - N/A   Drizzle
10:34 AM 42.8 °F 39.3 °F 41.0 °F 93% 29.20 in 10.0 mi North 5.8 mph - N/A   Drizzle
10:53 AM 42.8 °F 40.1 °F 42.8 °F 100% 29.21 in 7.0 mi North 4.6 mph - N/A   Drizzle
11:14 AM 42.8 °F 40.1 °F 42.8 °F 100% 29.22 in 7.0 mi NNW 4.6 mph - N/A   Drizzle
11:34 AM 42.8 °F 40.1 °F 42.8 °F 100% 29.22 in 5.0 mi NNW 4.6 mph - 0.01 in   Drizzle
11:53 AM 44.6 °F 40.7 °F 42.8 °F 93% 29.22 in 5.0 mi WNW 6.9 mph - 0.03 in Rain Light Rain
12:14 PM 44.6 °F 41.4 °F 42.8 °F 93% 29.23 in 7.0 mi NW 5.8 mph - N/A Rain Light Rain
12:33 PM 44.6 °F 41.4 °F 42.8 °F 93% 29.23 in 2.5 mi West 5.8 mph - 0.02 in Rain Rain
12:53 PM 44.6 °F 41.4 °F 42.8 °F 93% 29.24 in 7.0 mi WNW 5.8 mph - 0.03 in Rain Light Rain
1:14 PM 44.6 °F 41.4 °F 42.8 °F 93% 29.25 in 7.0 mi West 5.8 mph - 0.01 in Rain Rain
1:33 PM 44.6 °F 41.4 °F 44.6 °F 100% 29.25 in 7.0 mi WNW 5.8 mph - 0.02 in Rain Rain
1:53 PM 46.4 °F 42.4 °F 44.6 °F 93% 29.25 in 5.0 mi West 8.1 mph - 0.03 in Rain Light Rain
2:14 PM 44.6 °F 39.7 °F 44.6 °F 100% 29.25 in 3.0 mi West 9.2 mph - N/A Rain Rain
2:33 PM 44.6 °F 40.2 °F 44.6 °F 100% 29.25 in 3.0 mi WSW 8.1 mph - 0.01 in   Drizzle
2:53 PM 44.6 °F 40.2 °F 44.6 °F 100% 29.24 in 2.0 mi WSW 8.1 mph - 0.01 in   Drizzle
3:14 PM 44.6 °F 41.4 °F 44.6 °F 100% 29.25 in 1.8 mi SW 5.8 mph - 0.01 in   Drizzle
3:33 PM 44.6 °F 42.2 °F 44.6 °F 100% 29.25 in 2.5 mi SW 4.6 mph - 0.01 in   Light Drizzle
3:53 PM 44.6 °F 41.4 °F 44.6 °F 100% 29.25 in 2.0 mi WSW 5.8 mph - 0.01 in   Light Drizzle
4:14 PM 44.6 °F 41.4 °F 44.6 °F 100% 29.24 in 2.0 mi WSW 5.8 mph - N/A   Light Drizzle
4:33 PM 46.4 °F 44.3 °F 44.6 °F 93% 29.25 in 2.5 mi SW 4.6 mph - N/A   Light Drizzle
4:53 PM 46.4 °F 45.2 °F 44.6 °F 93% 29.25 in 3.0 mi South 3.5 mph - 0.01 in   Drizzle
5:14 PM 46.4 °F 45.2 °F 44.6 °F 93% 29.26 in 5.0 mi South 3.5 mph - N/A   Drizzle
5:33 PM 46.4 °F - 44.6 °F 93% 29.26 in 4.0 mi Calm Calm - N/A   Light Drizzle
5:53 PM 46.4 °F - 44.6 °F 93% 29.27 in 3.0 mi Calm Calm - 0.01 in   Drizzle
6:14 PM 46.4 °F - 44.6 °F 93% 29.28 in 3.0 mi Calm Calm - 0.01 in   Heavy Drizzle
6:33 PM 46.4 °F - 44.6 °F 93% 29.28 in 3.0 mi Calm Calm - 0.02 in   Heavy Drizzle
6:53 PM 46.4 °F - 44.6 °F 93% 29.29 in 3.0 mi Calm Calm - 0.05 in   Drizzle
7:13 PM 46.4 °F - 44.6 °F 93% 29.30 in 4.0 mi Calm Calm - N/A   Drizzle
7:33 PM 46.4 °F - 44.6 °F 93% 29.30 in 3.0 mi Calm Calm - 0.01 in   Drizzle
7:54 PM 46.4 °F - 44.6 °F 93% 29.32 in 2.5 mi Calm Calm - 0.02 in   Drizzle
8:13 PM 46.4 °F - 44.6 °F 93% 29.32 in 1.8 mi Calm Calm - 0.01 in   Drizzle
8:33 PM 46.4 °F - 44.6 °F 93% 29.33 in 2.0 mi Calm Calm - 0.03 in   Heavy Drizzle
9:14 PM 46.4 °F - 44.6 °F 93% 29.35 in 2.5 mi Calm Calm - 0.02 in   Light Drizzle
9:33 PM 46.4 °F 45.2 °F 44.6 °F 93% 29.36 in 3.0 mi ENE 3.5 mph - 0.02 in Rain Light Rain
9:53 PM 46.4 °F 43.5 °F 44.6 °F 93% 29.39 in 1.2 mi ENE 5.8 mph - 0.02 in   Overcast
10:14 PM 44.6 °F 42.2 °F 44.6 °F 100% 29.39 in 1.2 mi ENE 4.6 mph - N/A Rain Light Rain
10:33 PM 44.6 °F - 44.6 °F 100% 29.40 in 2.5 mi Calm Calm - N/A   Light Drizzle
10:53 PM 46.4 °F - 44.6 °F 93% 29.40 in 1.2 mi Calm Calm - N/A   Light Drizzle
11:14 PM 46.4 °F 44.3 °F 44.6 °F 93% 29.41 in 5.0 mi NNW 4.6 mph - N/A   Overcast
11:33 PM 46.4 °F 43.5 °F 44.6 °F 93% 29.42 in 2.5 mi NNW 5.8 mph - 0.01 in   Heavy Drizzle
11:54 PM 46.4 °F 43.5 °F 44.6 °F 93% 29.42 in 3.0 mi NNW 5.8 mph - 0.02 in Rain Rain